SL-16 DEB, 22494

Orbit data source: Space-Track

SL-16 DEB, 22494 is space debris in LEO originally from a launch on Fri, 25 Dec 1992 UTC launched from the Tyuratam Missile And Space Complex (TTMTR). Debris objects in space refer to the collection of defunct objects orbiting the Earth. Examples of debris include non-operational satellites, rocket bodies, and fragments generated from explosions, collisions, or faulty payload assembly.

Loading next visibility...
Identifier
22494, 1992-093GD
Orbit
LEO
Country
Flag of CISCIS
Related business
Manufacturer
Unknown
Mission
Spacecraft
Bus & Motor
Unknown
Mass
Unknown
Launch date (UTC)
1992-12-25 (33 years ago)
Launch vehicle
Unknown
Launch site
Tyuratam Missile And Space Complex (TTMTR)
Object type
Payload
Rocket body
Debris
Shape & HBR
Unknown shape, 0.1 m
Radar Cross Section
Medium (>0.1 m² and <1 m²)

Expand to show TLE details & history
Last TLE update: 2 days ago

TLE from 2 days ago
0 SL-16 DEB
1 22494U 92093GD  26171.18571256  .00003353  00000-0  16244-2 0  9999
2 22494  70.8056  78.1186 0150492  64.0010  85.4846 14.13373219689633
Epoch: 2026-06-20T04:27Z
TLE epoch observation values (Epoch: 2026-06-20T04:27:25.565Z)
Latitude
27.10494°
Longitude
-87.35105°
Altitude
843.7 km
Speed
7.437 km/s
True Right ascension
16h 31m 38s
True Declination
26° 58' 03"
Sunlit
Object was in full shadow at epoch
Visualization orbit readout
Latitude
Unknown
Longitude
Unknown
Altitude
Unknown
Speed
Unknown
Apparent Right ascension
Unknown
Apparent Declination
Unknown
Sunlit
N/A
Visualization observer readout
Local Sidereal Time
01:06:52
Azimuth
Unknown
Elevation
Unknown
Doppler factor
Unknown
Orbital elements
Apogee altitude
954.511 km
Perigee altitude
737.082 km
Semi-major axis
7,223.934 km
Eccentricity
0.01505
Inclination
70.8056°
RAAN
78.1186°
Arg. of periapsis
64.001°
True anomaly
87.20605°
Mean anomaly
85.4846°
Eccentric anomaly
86.3451°
Mean motion
3.53494 °/min
Orbital period
101.84 mins
BSTAR
0.0016244
Loading maneuver chart data...
Computing Atmospheric mass density...
Loading historical data...
Loading historical data...
Loading historical data...
Loading historical data...
Loading historical data...
Loading historical data...
Loading historical data...

Documentation

Showing up to 5 results
|